Time,TemperatureF,DewpointF,PressureIn,WindDirection,WindDirectionDegrees,WindSpeedMPH,WindSpeedGustMPH,Humidity,HourlyPrecipIn,Conditions,Clouds,dailyrainin,SoftwareType,DateUTC
2013-04-19 00:01:00,35.0,12.0,-100.00,West,264,3.0,3.0,38,-99.99,,,-99.99,,2013-04-19 06:01:00,
2013-04-19 00:11:00,34.0,14.0,-100.00,West,277,3.0,4.0,43,-99.99,,,-99.99,,2013-04-19 06:11:00,
2013-04-19 00:22:00,31.0,16.0,-100.00,SE,140,1.0,4.0,53,-99.99,,,-99.99,,2013-04-19 06:22:00,
2013-04-19 00:31:00,31.0,14.0,-100.00,ESE,120,1.0,1.0,47,-99.99,,,-99.99,,2013-04-19 06:31:00,
2013-04-19 00:42:00,31.0,14.0,-100.00,South,178,1.0,1.0,47,-99.99,,,-99.99,,2013-04-19 06:42:00,
2013-04-19 00:52:00,32.0,13.0,-100.00,SSW,206,2.0,2.0,45,-99.99,,,-99.99,,2013-04-19 06:52:00,
2013-04-19 01:01:00,33.0,12.0,-100.00,WSW,254,2.0,2.0,42,-99.99,,,-99.99,,2013-04-19 07:01:00,
2013-04-19 01:12:00,32.0,13.0,-100.00,WSW,254,3.0,6.0,44,-99.99,,,-99.99,,2013-04-19 07:12:00,
2013-04-19 01:21:00,32.0,13.0,-100.00,WSW,243,4.0,4.0,44,-99.99,,,-99.99,,2013-04-19 07:21:00,
2013-04-19 01:31:00,32.0,14.0,-100.00,WSW,239,4.0,5.0,47,-99.99,,,-99.99,,2013-04-19 07:31:00,
2013-04-19 01:42:00,32.0,14.0,-100.00,WSW,239,4.0,5.0,47,-99.99,,,-99.99,,2013-04-19 07:42:00,
2013-04-19 01:52:00,32.0,14.0,-100.00,WSW,258,7.0,7.0,47,-99.99,,,-99.99,,2013-04-19 07:52:00,
2013-04-19 02:02:00,28.0,16.0,-100.00,WSW,257,9.0,9.0,58,-99.99,,,-99.99,,2013-04-19 08:02:00,
2013-04-19 02:12:00,27.0,16.0,-100.00,WSW,258,8.0,8.0,61,-99.99,,,-99.99,,2013-04-19 08:12:00,
2013-04-19 02:21:00,28.0,16.0,-100.00,West,261,7.0,8.0,60,-99.99,,,-99.99,,2013-04-19 08:21:00,
2013-04-19 02:32:00,26.0,16.0,-100.00,SW,223,3.0,7.0,66,-99.99,,,-99.99,,2013-04-19 08:32:00,
2013-04-19 02:42:00,28.0,15.0,-100.00,West,260,8.0,8.0,57,-99.99,,,-99.99,,2013-04-19 08:42:00,
2013-04-19 02:51:00,28.0,16.0,-100.00,West,260,8.0,8.0,61,-99.99,,,-99.99,,2013-04-19 08:51:00,
2013-04-19 03:01:00,30.0,15.0,-100.00,West,263,10.0,10.0,52,-99.99,,,-99.99,,2013-04-19 09:01:00,
2013-04-19 03:11:00,32.0,12.0,-100.00,West,265,8.0,8.0,42,-99.99,,,-99.99,,2013-04-19 09:11:00,
2013-04-19 03:21:00,31.0,13.0,-100.00,WSW,255,8.0,8.0,46,-99.99,,,-99.99,,2013-04-19 09:21:00,
2013-04-19 03:32:00,28.0,15.0,-100.00,West,259,7.0,8.0,57,-99.99,,,-99.99,,2013-04-19 09:32:00,
2013-04-19 03:42:00,29.0,14.0,-100.00,West,262,8.0,8.0,54,-99.99,,,-99.99,,2013-04-19 09:42:00,
2013-04-19 03:52:00,27.0,16.0,-100.00,SSW,212,3.0,7.0,62,-99.99,,,-99.99,,2013-04-19 09:52:00,
2013-04-19 04:02:00,28.0,15.0,-100.00,West,261,7.0,7.0,59,-99.99,,,-99.99,,2013-04-19 10:02:00,
2013-04-19 04:13:00,29.0,14.0,-100.00,West,265,10.0,10.0,52,-99.99,,,-99.99,,2013-04-19 10:13:00,
2013-04-19 04:23:00,29.0,14.0,-100.00,West,259,9.0,9.0,53,-99.99,,,-99.99,,2013-04-19 10:23:00,
2013-04-19 04:33:00,29.0,14.0,-100.00,WSW,253,8.0,8.0,53,-99.99,,,-99.99,,2013-04-19 10:33:00,
2013-04-19 04:42:00,30.0,14.0,-100.00,WSW,251,7.0,8.0,51,-99.99,,,-99.99,,2013-04-19 10:42:00,
2013-04-19 04:52:00,29.0,15.0,-100.00,WSW,240,4.0,8.0,55,-99.99,,,-99.99,,2013-04-19 10:52:00,
2013-04-19 05:02:00,28.0,14.0,-100.00,WSW,254,7.0,7.0,54,-99.99,,,-99.99,,2013-04-19 11:02:00,
2013-04-19 05:11:00,28.0,15.0,-100.00,NNW,341,4.0,7.0,58,-99.99,,,-99.99,,2013-04-19 11:11:00,
2013-04-19 05:21:00,28.0,14.0,-100.00,NW,322,2.0,5.0,54,-99.99,,,-99.99,,2013-04-19 11:21:00,
2013-04-19 05:32:00,29.0,13.0,-100.00,West,280,4.0,5.0,51,-99.99,,,-99.99,,2013-04-19 11:32:00,
2013-04-19 05:42:00,29.0,13.0,-100.00,NW,317,0.0,3.0,52,-99.99,,,-99.99,,2013-04-19 11:42:00,
2013-04-19 05:52:00,27.0,14.0,-100.00,North,4,0.0,2.0,57,-99.99,,,-99.99,,2013-04-19 11:52:00,
2013-04-19 06:02:00,27.0,14.0,-100.00,WSW,240,1.0,2.0,55,-99.99,,,-99.99,,2013-04-19 12:02:00,
2013-04-19 06:12:00,29.0,14.0,-100.00,NNE,29,0.0,3.0,53,-99.99,,,-99.99,,2013-04-19 12:12:00,
2013-04-19 06:22:00,29.0,13.0,-100.00,SSW,209,2.0,2.0,50,-99.99,,,-99.99,,2013-04-19 12:22:00,
2013-04-19 06:32:00,30.0,12.0,-100.00,SW,236,3.0,3.0,47,-99.99,,,-99.99,,2013-04-19 12:32:00,
2013-04-19 06:42:00,30.0,12.0,-100.00,WSW,251,3.0,4.0,45,-99.99,,,-99.99,,2013-04-19 12:42:00,
2013-04-19 06:52:00,30.0,12.0,-100.00,NNW,327,2.0,2.0,46,-99.99,,,-99.99,,2013-04-19 12:52:00,
2013-04-19 07:01:00,31.0,11.0,-100.00,West,267,1.0,3.0,43,-99.99,,,-99.99,,2013-04-19 13:01:00,
2013-04-19 07:11:00,28.0,15.0,-100.00,NW,318,6.0,6.0,56,-99.99,,,-99.99,,2013-04-19 13:11:00,
2013-04-19 07:21:00,30.0,14.0,-100.00,NW,316,5.0,5.0,50,-99.99,,,-99.99,,2013-04-19 13:21:00,
2013-04-19 07:32:00,30.0,13.0,-100.00,NNW,330,3.0,4.0,46,-99.99,,,-99.99,,2013-04-19 13:32:00,
2013-04-19 07:42:00,30.0,16.0,-100.00,NNE,21,3.0,3.0,56,-99.99,,,-99.99,,2013-04-19 13:42:00,
2013-04-19 07:52:00,30.0,16.0,-100.00,NNE,17,3.0,5.0,54,-99.99,,,-99.99,,2013-04-19 13:52:00,
2013-04-19 08:01:00,31.0,15.0,-100.00,NNE,16,3.0,4.0,51,-99.99,,,-99.99,,2013-04-19 14:01:00,
2013-04-19 08:11:00,31.0,18.0,-100.00,NNE,23,3.0,3.0,56,-99.99,,,-99.99,,2013-04-19 14:11:00,
2013-04-19 08:21:00,33.0,15.0,-100.00,NE,49,2.0,3.0,46,-99.99,,,-99.99,,2013-04-19 14:21:00,
2013-04-19 08:31:00,34.0,15.0,-100.00,ENE,74,4.0,6.0,45,-99.99,,,-99.99,,2013-04-19 14:31:00,
2013-04-19 08:42:00,33.0,16.0,-100.00,ENE,72,6.0,6.0,49,-99.99,,,-99.99,,2013-04-19 14:42:00,
2013-04-19 08:52:00,33.0,15.0,-100.00,ENE,60,5.0,7.0,47,-99.99,,,-99.99,,2013-04-19 14:52:00,
2013-04-19 09:01:00,33.0,17.0,-100.00,East,82,5.0,7.0,50,-99.99,,,-99.99,,2013-04-19 15:01:00,
2013-04-19 09:11:00,32.0,17.0,-100.00,ENE,69,5.0,7.0,53,-99.99,,,-99.99,,2013-04-19 15:11:00,
2013-04-19 09:21:00,33.0,18.0,-100.00,ENE,67,4.0,5.0,54,-99.99,,,-99.99,,2013-04-19 15:21:00,
2013-04-19 09:33:00,34.0,17.0,-100.00,ENE,64,4.0,6.0,51,-99.99,,,-99.99,,2013-04-19 15:33:00,
2013-04-19 09:43:00,34.0,18.0,-100.00,ENE,65,7.0,9.0,50,-99.99,,,-99.99,,2013-04-19 15:43:00,
2013-04-19 09:52:00,35.0,15.0,-100.00,NE,40,7.0,9.0,44,-99.99,,,-99.99,,2013-04-19 15:52:00,
2013-04-19 10:03:00,35.0,16.0,-100.00,NE,55,4.0,7.0,43,-99.99,,,-99.99,,2013-04-19 16:03:00,
2013-04-19 10:12:00,37.0,16.0,-100.00,ENE,64,3.0,6.0,41,-99.99,,,-99.99,,2013-04-19 16:12:00,
2013-04-19 10:23:00,38.0,16.0,-100.00,ENE,60,3.0,4.0,40,-99.99,,,-99.99,,2013-04-19 16:23:00,
2013-04-19 10:32:00,39.0,13.0,-100.00,ESE,117,2.0,4.0,34,-99.99,,,-99.99,,2013-04-19 16:32:00,
2013-04-19 10:42:00,40.0,16.0,-100.00,East,83,3.0,5.0,37,-99.99,,,-99.99,,2013-04-19 16:42:00,
2013-04-19 10:52:00,40.0,14.0,-100.00,ESE,105,5.0,6.0,33,-99.99,,,-99.99,,2013-04-19 16:52:00,
2013-04-19 11:02:00,41.0,13.0,-100.00,ENE,63,4.0,6.0,31,-99.99,,,-99.99,,2013-04-19 17:02:00,
2013-04-19 11:11:00,42.0,15.0,-100.00,East,84,4.0,7.0,32,-99.99,,,-99.99,,2013-04-19 17:11:00,
2013-04-19 11:21:00,44.0,14.0,-100.00,East,88,3.0,5.0,29,-99.99,,,-99.99,,2013-04-19 17:21:00,
2013-04-19 11:32:00,42.0,15.0,-100.00,South,174,4.0,7.0,32,-99.99,,,-99.99,,2013-04-19 17:32:00,
2013-04-19 11:42:00,44.0,13.0,-100.00,South,190,4.0,5.0,28,-99.99,,,-99.99,,2013-04-19 17:42:00,
2013-04-19 11:52:00,45.0,13.0,-100.00,SE,135,5.0,8.0,26,-99.99,,,-99.99,,2013-04-19 17:52:00,
2013-04-19 12:01:00,45.0,13.0,-100.00,SE,146,4.0,6.0,26,-99.99,,,-99.99,,2013-04-19 18:01:00,
2013-04-19 12:13:00,47.0,16.0,-100.00,ENE,57,5.0,7.0,28,-99.99,,,-99.99,,2013-04-19 18:13:00,
2013-04-19 12:22:00,46.0,16.0,-100.00,ENE,62,11.0,13.0,30,-99.99,,,-99.99,,2013-04-19 18:22:00,
2013-04-19 12:32:00,45.0,15.0,-100.00,ENE,57,8.0,13.0,29,-99.99,,,-99.99,,2013-04-19 18:32:00,
2013-04-19 12:42:00,47.0,16.0,-100.00,NNE,23,6.0,13.0,28,-99.99,,,-99.99,,2013-04-19 18:42:00,
2013-04-19 12:52:00,47.0,14.0,-100.00,East,81,7.0,13.0,25,-99.99,,,-99.99,,2013-04-19 18:52:00,
2013-04-19 13:01:00,47.0,16.0,-100.00,NE,52,10.0,13.0,28,-99.99,,,-99.99,,2013-04-19 19:01:00,
2013-04-19 13:11:00,47.0,15.0,-100.00,NNE,22,7.0,13.0,26,-99.99,,,-99.99,,2013-04-19 19:11:00,
2013-04-19 13:21:00,49.0,15.0,-100.00,ENE,59,6.0,8.0,25,-99.99,,,-99.99,,2013-04-19 19:21:00,
2013-04-19 13:31:00,49.0,15.0,-100.00,NW,304,4.0,7.0,25,-99.99,,,-99.99,,2013-04-19 19:31:00,
2013-04-19 13:41:00,50.0,16.0,-100.00,NNW,328,3.0,7.0,24,-99.99,,,-99.99,,2013-04-19 19:41:00,
2013-04-19 13:52:00,50.0,18.0,-100.00,South,189,3.0,10.0,28,-99.99,,,-99.99,,2013-04-19 19:52:00,
2013-04-19 14:01:00,52.0,18.0,-100.00,West,262,9.0,13.0,26,-99.99,,,-99.99,,2013-04-19 20:01:00,
2013-04-19 14:11:00,51.0,17.0,-100.00,West,272,16.0,18.0,25,-99.99,,,-99.99,,2013-04-19 20:11:00,
2013-04-19 14:22:00,51.0,17.0,-100.00,West,281,11.0,16.0,26,-99.99,,,-99.99,,2013-04-19 20:22:00,
2013-04-19 14:31:00,51.0,17.0,-100.00,West,281,11.0,16.0,26,-99.99,,,-99.99,,2013-04-19 20:31:00,
2013-04-19 14:41:00,51.0,17.0,-100.00,West,259,17.0,19.0,26,-99.99,,,-99.99,,2013-04-19 20:41:00,
2013-04-19 14:51:00,52.0,18.0,-100.00,West,269,13.0,20.0,25,-99.99,,,-99.99,,2013-04-19 20:51:00,
2013-04-19 15:01:00,52.0,19.0,-100.00,WNW,293,12.0,20.0,26,-99.99,,,-99.99,,2013-04-19 21:01:00,
2013-04-19 15:11:00,52.0,19.0,-100.00,WNW,287,16.0,22.0,26,-99.99,,,-99.99,,2013-04-19 21:11:00,
2013-04-19 15:21:00,52.0,17.0,-100.00,NW,316,18.0,23.0,25,-99.99,,,-99.99,,2013-04-19 21:21:00,
2013-04-19 15:32:00,52.0,20.0,-100.00,NW,305,15.0,20.0,27,-99.99,,,-99.99,,2013-04-19 21:32:00,
2013-04-19 15:42:00,52.0,20.0,-100.00,NW,305,15.0,20.0,27,-99.99,,,-99.99,,2013-04-19 21:42:00,
2013-04-19 15:52:00,52.0,20.0,-100.00,NW,309,10.0,17.0,28,-99.99,,,-99.99,,2013-04-19 21:52:00,
2013-04-19 16:02:00,52.0,20.0,-100.00,WNW,289,15.0,18.0,27,-99.99,,,-99.99,,2013-04-19 22:02:00,
2013-04-19 16:12:00,52.0,19.0,-100.00,WNW,289,10.0,17.0,26,-99.99,,,-99.99,,2013-04-19 22:12:00,
2013-04-19 16:22:00,51.0,19.0,-100.00,WNW,292,16.0,19.0,27,-99.99,,,-99.99,,2013-04-19 22:22:00,
2013-04-19 16:33:00,51.0,19.0,-100.00,WNW,292,16.0,19.0,27,-99.99,,,-99.99,,2013-04-19 22:33:00,
2013-04-19 16:42:00,51.0,18.0,-100.00,WNW,286,10.0,15.0,26,-99.99,,,-99.99,,2013-04-19 22:42:00,
2013-04-19 16:52:00,54.0,19.0,-100.00,WSW,243,15.0,21.0,24,-99.99,,,-99.99,,2013-04-19 22:52:00,
2013-04-19 17:02:00,52.0,17.0,-100.00,WSW,247,13.0,16.0,24,-99.99,,,-99.99,,2013-04-19 23:02:00,
2013-04-19 17:11:00,54.0,19.0,-100.00,WNW,297,6.0,12.0,25,-99.99,,,-99.99,,2013-04-19 23:11:00,
2013-04-19 17:22:00,53.0,19.0,-100.00,WNW,297,8.0,15.0,25,-99.99,,,-99.99,,2013-04-19 23:22:00,
2013-04-19 17:31:00,52.0,17.0,-100.00,West,261,13.0,19.0,25,-99.99,,,-99.99,,2013-04-19 23:31:00,
2013-04-19 17:42:00,52.0,18.0,-100.00,WSW,255,13.0,19.0,25,-99.99,,,-99.99,,2013-04-19 23:42:00,
2013-04-19 17:52:00,52.0,17.0,-100.00,WSW,252,14.0,21.0,25,-99.99,,,-99.99,,2013-04-19 23:52:00,
2013-04-19 18:01:00,51.0,18.0,-100.00,West,264,14.0,18.0,26,-99.99,,,-99.99,,2013-04-20 00:01:00,
2013-04-19 18:11:00,52.0,18.0,-100.00,WSW,249,14.0,18.0,26,-99.99,,,-99.99,,2013-04-20 00:11:00,
2013-04-19 18:21:00,52.0,17.0,-100.00,WSW,258,13.0,19.0,25,-99.99,,,-99.99,,2013-04-20 00:21:00,
2013-04-19 18:31:00,51.0,16.0,-100.00,WSW,258,19.0,22.0,24,-99.99,,,-99.99,,2013-04-20 00:31:00,
2013-04-19 18:41:00,51.0,16.0,-100.00,WSW,258,19.0,22.0,24,-99.99,,,-99.99,,2013-04-20 00:41:00,
2013-04-19 18:51:00,51.0,17.0,-100.00,WSW,245,15.0,21.0,25,-99.99,,,-99.99,,2013-04-20 00:51:00,
2013-04-19 19:01:00,50.0,17.0,-100.00,WSW,244,17.0,19.0,26,-99.99,,,-99.99,,2013-04-20 01:01:00,
2013-04-19 19:11:00,50.0,17.0,-100.00,WSW,258,11.0,15.0,26,-99.99,,,-99.99,,2013-04-20 01:11:00,
2013-04-19 19:21:00,49.0,18.0,-100.00,West,278,13.0,14.0,28,-99.99,,,-99.99,,2013-04-20 01:21:00,
2013-04-19 19:32:00,49.0,18.0,-100.00,West,278,13.0,14.0,28,-99.99,,,-99.99,,2013-04-20 01:32:00,
2013-04-19 19:42:00,49.0,19.0,-100.00,WNW,291,5.0,13.0,29,-99.99,,,-99.99,,2013-04-20 01:42:00,
2013-04-19 19:52:00,49.0,19.0,-100.00,WNW,297,16.0,20.0,30,-99.99,,,-99.99,,2013-04-20 01:52:00,
2013-04-19 20:01:00,48.0,20.0,-100.00,West,269,13.0,16.0,32,-99.99,,,-99.99,,2013-04-20 02:01:00,
2013-04-19 20:11:00,48.0,20.0,-100.00,West,269,13.0,16.0,32,-99.99,,,-99.99,,2013-04-20 02:11:00,
2013-04-19 20:21:00,48.0,21.0,-100.00,WNW,290,9.0,11.0,34,-99.99,,,-99.99,,2013-04-20 02:21:00,
2013-04-19 20:32:00,47.0,20.0,-100.00,West,271,14.0,18.0,34,-99.99,,,-99.99,,2013-04-20 02:32:00,
2013-04-19 20:42:00,46.0,22.0,-100.00,West,274,9.0,16.0,38,-99.99,,,-99.99,,2013-04-20 02:42:00,
2013-04-19 20:52:00,46.0,22.0,-100.00,West,274,9.0,16.0,38,-99.99,,,-99.99,,2013-04-20 02:52:00,
2013-04-19 21:01:00,45.0,23.0,-100.00,West,281,8.0,11.0,41,-99.99,,,-99.99,,2013-04-20 03:01:00,
2013-04-19 21:11:00,45.0,23.0,-100.00,West,266,8.0,8.0,41,-99.99,,,-99.99,,2013-04-20 03:11:00,
2013-04-19 21:21:00,44.0,24.0,-100.00,WNW,285,9.0,10.0,43,-99.99,,,-99.99,,2013-04-20 03:21:00,
2013-04-19 21:33:00,44.0,23.0,-100.00,WNW,294,9.0,10.0,43,-99.99,,,-99.99,,2013-04-20 03:33:00,
2013-04-19 21:43:00,44.0,24.0,-100.00,West,276,9.0,10.0,43,-99.99,,,-99.99,,2013-04-20 03:43:00,
2013-04-19 21:52:00,44.0,23.0,-100.00,West,278,5.0,6.0,43,-99.99,,,-99.99,,2013-04-20 03:52:00,
2013-04-19 22:02:00,44.0,24.0,-100.00,WSW,251,4.0,5.0,45,-99.99,,,-99.99,,2013-04-20 04:02:00,
2013-04-19 22:12:00,44.0,24.0,-100.00,WSW,248,1.0,2.0,44,-99.99,,,-99.99,,2013-04-20 04:12:00,
2013-04-19 22:23:00,44.0,23.0,-100.00,SW,227,3.0,4.0,43,-99.99,,,-99.99,,2013-04-20 04:23:00,
2013-04-19 22:32:00,44.0,24.0,-100.00,West,263,3.0,3.0,43,-99.99,,,-99.99,,2013-04-20 04:32:00,
2013-04-19 22:42:00,44.0,23.0,-100.00,WSW,255,4.0,4.0,43,-99.99,,,-99.99,,2013-04-20 04:42:00,
2013-04-19 22:52:00,44.0,23.0,-100.00,West,269,4.0,4.0,43,-99.99,,,-99.99,,2013-04-20 04:52:00,
2013-04-19 23:01:00,43.0,25.0,-100.00,WSW,257,5.0,6.0,49,-99.99,,,-99.99,,2013-04-20 05:01:00,
2013-04-19 23:12:00,42.0,26.0,-100.00,WSW,249,6.0,6.0,52,-99.99,,,-99.99,,2013-04-20 05:12:00,
2013-04-19 23:21:00,41.0,25.0,-100.00,SW,235,7.0,7.0,52,-99.99,,,-99.99,,2013-04-20 05:21:00,
2013-04-19 23:32:00,41.0,25.0,-100.00,SW,224,7.0,7.0,53,-99.99,,,-99.99,,2013-04-20 05:32:00,
2013-04-19 23:42:00,40.0,25.0,-100.00,SW,223,8.0,8.0,55,-99.99,,,-99.99,,2013-04-20 05:42:00,
2013-04-19 23:51:00,41.0,25.0,-100.00,SW,225,8.0,9.0,53,-99.99,,,-99.99,,2013-04-20 05:51:00,